Ostrava, Czech Republic

10:06 AM CET on January 20, 2017 (GMT +0100)
Ostrava

Weather History for LKMT - September, 2013

Change the Weather History Date:

Thursday, September 19, 2013

  Actual Average Record
Temperature  
Mean Temperature 54 °F -  
Max Temperature 60 °F 61 °F - ()
Min Temperature 48 °F 43 °F - ()
Degree Days  
Heating Degree Days 11    
Growing Degree Days 4 (Base 50)    
Moisture  
Dew Point 46 °F    
Average Humidity 81    
Maximum Humidity 100    
Minimum Humidity 52    
Precipitation  
Precipitation 0.00 in 0.06 in - ()
Sea Level Pressure  
Sea Level Pressure 29.74 in    
Wind  
Wind Speed 6 mph ()    
Max Wind Speed 15 mph    
Max Gust Speed -    
Visibility 6.4 miles    
Events Rain    
T = Trace of Precipitation, MM = Missing Value Source: Averaged Metar Reports

Daily Weather History Graph

Daily Weather History Graph

Search for Another Location

Airport or City:

Trip Planner

Search our weather history database for the weather conditions in past years. The results will help you decide how hot, cold, wet, or windy it might be!

Date:

Astronomy

Sep. 19, 2013 Rise Set
Actual Time 6:29 AM CEST 6:52 PM CEST
Civil Twilight 5:57 AM CEST 7:24 PM CEST
Nautical Twilight 5:19 AM CEST 8:02 PM CEST
Astronomical Twilight 4:39 AM CEST 8:41 PM CEST
Moon 6:33 PM CEST (9/19) 6:21 AM CEST (9/19)
Length of Visible Light 13h 26m
Length of Day
12h 22m
Full, 100% of the Moon is Illuminated
Sep 19
Full
Sep 19
Full
Sep 27
Last Quarter
Oct 5
New
Oct 12
First Quarter

Hourly Weather History & Observations

Time (CEST) Temp. Dew Point Humidity Pressure Visibility Wind Dir Wind Speed Gust Speed Precip Events Conditions
12:00 AM 50.0 °F 50.0 °F 100% 29.53 in 6.2 mi WSW 3.5 mph - N/A Rain Light Rain
12:30 AM 50.0 °F 50.0 °F 100% 29.53 in 6.2 mi WSW 4.6 mph - N/A Rain Light Rain
1:00 AM 50.0 °F 50.0 °F 100% 29.56 in 6.2 mi WSW 4.6 mph - N/A Rain Light Rain
1:30 AM 51.8 °F 50.0 °F 94% 29.56 in 6.2 mi SW 6.9 mph - N/A Rain Light Rain
2:00 AM 51 °F 50 °F 93% 29.59 in 9 mi SW 6.7 mph - - Rain Light Rain
2:00 AM 51.8 °F 50.0 °F 94% 29.56 in 6.2 mi SW 6.9 mph - N/A   Mostly Cloudy
2:30 AM 51.8 °F 50.0 °F 94% 29.56 in 6.2 mi WSW 3.5 mph - N/A   Overcast
3:00 AM 51.8 °F 50.0 °F 94% 29.59 in 6.2 mi WSW 4.6 mph - N/A   Scattered Clouds
3:30 AM 51.8 °F 50.0 °F 94% 29.59 in 4.3 mi WSW 4.6 mph - N/A   Overcast
3:56 AM 51.8 °F 50.0 °F 94% 29.59 in 2.8 mi NW 4.6 mph - N/A Rain Light Rain
4:00 AM 51.8 °F 50.0 °F 94% 29.59 in 2.5 mi NW 4.6 mph - N/A Rain Light Rain
4:30 AM 50.0 °F 48.2 °F 94% 29.62 in 2.8 mi NW 6.9 mph - N/A Rain Rain
5:00 AM 50.0 °F 48.2 °F 94% 29.62 in 5.0 mi NNE 5.8 mph - N/A Rain Light Rain
5:30 AM 50.0 °F 48.2 °F 94% 29.62 in 6.2 mi NNE 3.5 mph - N/A Rain Light Rain
6:00 AM 48.2 °F 44.6 °F 87% 29.65 in 6.2 mi NNE 3.5 mph - N/A   Mostly Cloudy
6:30 AM 48.2 °F 44.6 °F 87% 29.65 in 6.2 mi Variable 3.5 mph - N/A   Mostly Cloudy
7:00 AM 50.0 °F 42.8 °F 76% 29.68 in 6.2 mi Variable 1.2 mph - N/A   Mostly Cloudy
7:30 AM 48.2 °F 42.8 °F 82% 29.68 in 6.2 mi Variable 2.3 mph - N/A   Mostly Cloudy
8:00 AM 49 °F 43 °F 74% 29.72 in 16 mi 4.5 mph - -   Partly Cloudy
8:00 AM 50.0 °F 42.8 °F 76% 29.71 in - WSW 4.6 mph - N/A   Clear
8:30 AM 50.0 °F 42.8 °F 76% 29.71 in - West 6.9 mph - N/A   Clear
9:00 AM 50.0 °F 42.8 °F 76% 29.71 in 6.2 mi WSW 4.6 mph - N/A   Partly Cloudy
9:30 AM 51.8 °F 44.6 °F 76% 29.74 in 6.2 mi SW 5.8 mph - N/A   Mostly Cloudy
10:00 AM 51.8 °F 46.4 °F 82% 29.74 in 6.2 mi SW 9.2 mph - N/A   Mostly Cloudy
10:30 AM 51.8 °F 44.6 °F 76% 29.74 in 6.2 mi WSW 11.5 mph - N/A   Mostly Cloudy
11:00 AM 53.6 °F 44.6 °F 72% 29.74 in 6.2 mi SW 10.4 mph - N/A   Partly Cloudy
11:30 AM 53.6 °F 44.6 °F 72% 29.77 in 6.2 mi WSW 10.4 mph - N/A   Overcast
12:00 PM 53.6 °F 44.6 °F 72% 29.77 in 6.2 mi SW 8.1 mph - N/A   Overcast
12:30 PM 55.4 °F 44.6 °F 67% 29.77 in 6.2 mi SW 5.8 mph - N/A   Overcast
1:00 PM 53.6 °F 44.6 °F 72% 29.77 in 6.2 mi SW 8.1 mph - N/A   Mostly Cloudy
1:30 PM 55.4 °F 46.4 °F 72% 29.77 in 6.2 mi West 5.8 mph - N/A   Mostly Cloudy
2:00 PM 55 °F 43 °F 53% 29.80 in 12 mi West 13.4 mph - -   Mostly Cloudy
2:00 PM 55.4 °F 42.8 °F 63% 29.77 in 6.2 mi West 11.5 mph - N/A   Overcast
2:30 PM 57.2 °F 42.8 °F 59% 29.77 in 6.2 mi West 11.5 mph - N/A Rain Light Rain Showers
3:00 PM 57.2 °F 41.0 °F 55% 29.80 in 6.2 mi West 15.0 mph - N/A   Mostly Cloudy
3:30 PM 60.8 °F 42.8 °F 52% 29.80 in 6.2 mi WNW 8.1 mph - N/A   Mostly Cloudy
4:00 PM 53.6 °F 44.6 °F 72% 29.80 in 6.2 mi NE 6.9 mph - N/A   Mostly Cloudy
4:30 PM 55.4 °F 46.4 °F 72% 29.80 in 6.2 mi NE 4.6 mph - N/A   Mostly Cloudy
5:00 PM 53.6 °F 46.4 °F 77% 29.80 in 6.2 mi NNE 3.5 mph - N/A   Mostly Cloudy
5:30 PM 53.6 °F 46.4 °F 77% 29.83 in 6.2 mi Variable 2.3 mph - N/A   Mostly Cloudy
6:00 PM 51.8 °F 44.6 °F 76% 29.83 in 6.2 mi WSW 5.8 mph - N/A   Scattered Clouds
6:30 PM 51.8 °F 46.4 °F 82% 29.83 in 6.2 mi SW 8.1 mph - N/A   Scattered Clouds
7:00 PM 50.0 °F 44.6 °F 82% 29.86 in 6.2 mi WSW 8.1 mph - N/A   Scattered Clouds
7:30 PM 50.0 °F 44.6 °F 82% 29.86 in 6.2 mi SW 8.1 mph - N/A   Scattered Clouds
8:00 PM 50 °F 45 °F 77% 29.90 in 12 mi SW 8.9 mph - -   Partly Cloudy
8:00 PM 50.0 °F 46.4 °F 87% 29.86 in 6.2 mi SW 8.1 mph - N/A   Scattered Clouds
8:30 PM 50.0 °F 46.4 °F 87% 29.89 in 6.2 mi SW 6.9 mph - N/A   Partly Cloudy
9:00 PM 48.2 °F 44.6 °F 87% 29.89 in 6.2 mi SW 5.8 mph - N/A   Scattered Clouds
9:30 PM 50.0 °F 46.4 °F 87% 29.89 in 6.2 mi SW 9.2 mph - N/A   Scattered Clouds
10:00 PM 50.0 °F 44.6 °F 82% 29.92 in - SSW 6.9 mph - N/A   Clear
10:30 PM 50.0 °F 44.6 °F 82% 29.92 in - SW 5.8 mph - N/A   Clear
11:00 PM 50.0 °F 44.6 °F 82% 29.92 in - SW 6.9 mph - N/A   Clear
11:30 PM 48.2 °F 44.6 °F 87% 29.92 in - SW 6.9 mph - N/A   Clear